| time (UTC) | temp F | wind direction | speed MPH | gust MPH | rain 1hr in | rain 24hr in | rain mn in | humidity % | barometer mb |
| 20260903120037 | 55 | 134 | 3.0 | 5.0 | 0.00 | 0.01 | 0.00 | 65 | 1024.5 |
| 20260903114535 | 55 | 136 | 4.0 | 9.0 | 0.00 | 0.01 | 0.00 | 65 | 1024.4 |
| 20260903113036 | 55 | 153 | 5.0 | 9.0 | 0.00 | 0.01 | 0.00 | 65 | 1024.3 |
| 20260903111535 | 55 | 130 | 5.0 | 10.0 | 0.00 | 0.01 | 0.00 | 65 | 1024.5 |
| 20260903110035 | 55 | 113 | 6.0 | 9.0 | 0.00 | 0.01 | 0.00 | 65 | 1024.4 |
| 20260903104538 | 54 | 138 | 5.0 | 10.0 | 0.00 | 0.01 | 0.00 | 66 | 1024.4 |
| 20260903103035 | 53 | 148 | 6.0 | 13.0 | 0.00 | 0.01 | 0.00 | 71 | 1024.4 |
| 20260903101538 | 51 | 0 | 0.0 | 5.0 | 0.00 | 0.01 | 0.00 | 71 | 1024.4 |
| 20260903100036 | 51 | 192 | 2.0 | 5.0 | 0.00 | 0.01 | 0.00 | 72 | 1024.4 |
| 20260903094534 | 51 | 179 | 0.0 | 4.0 | 0.00 | 0.01 | 0.00 | 72 | 1024.4 |
| 20260903093038 | 52 | 267 | 1.0 | 5.0 | 0.00 | 0.01 | 0.00 | 72 | 1024.3 |
| 20260903091552 | 51 | 150 | 0.0 | 3.0 | 0.00 | 0.01 | 0.00 | 73 | 1024.2 |
| 20260903090035 | 51 | 0 | 0.0 | 4.0 | 0.00 | 0.01 | 0.00 | 73 | 1024.3 |
| 20260903084537 | 0 | 0.0 | 0.0 | 0.00 | 0.01 | 0.00 | 1024.3 | ||
| 20260903083035 | 0 | 0.0 | 0.0 | 0.00 | 0.01 | 0.00 | 1024.3 | ||
| 20260903081534 | 0 | 0.0 | 0.0 | 0.00 | 0.01 | 0.00 | 1024.4 | ||
| 20260903080034 | 0 | 0.0 | 0.0 | 0.00 | 0.01 | 0.00 | 1024.4 | ||
| 20260903074536 | 0 | 0.0 | 0.0 | 0.00 | 0.01 | 0.00 | 1024.6 | ||
| 20260903073043 | 0 | 0.0 | 0.0 | 0.00 | 0.01 | 0.00 | 1024.7 | ||
| 20260903071534 | 0 | 0.0 | 0.0 | 0.00 | 0.01 | 0.00 | 1024.7 | ||
| 20260903070033 | 0 | 0.0 | 0.0 | 0.00 | 0.01 | 0.00 | 1025.0 | ||
| 20260903064534 | 0 | 0.0 | 0.0 | 0.00 | 0.01 | 0.00 | 1024.6 | ||
| 20260903063035 | 0 | 3.0 | 0.0 | 0.00 | 0.01 | 0.00 | 1024.5 | ||
| 20260903061535 | 55 | 42 | 1.0 | 4.0 | 0.00 | 0.01 | 0.00 | 72 | 1024.9 |
| 20260903060037 | 0 | 0.0 | 0.0 | 0.00 | 0.01 | 0.00 | 1025.2 | ||
| 20260903054534 | 0 | 0.0 | 0.0 | 0.00 | 0.01 | 0.01 | 1025.0 | ||
| 20260903053036 | 0 | 0.0 | 0.0 | 0.00 | 0.01 | 0.01 | 1024.9 | ||
| 20260903051537 | 0 | 0.0 | 0.0 | 0.00 | 0.01 | 0.01 | 1025.0 | ||
| 20260903050035 | 0 | 0.0 | 0.0 | 0.00 | 0.01 | 0.01 | 1025.2 | ||
| 20260903044536 | 54 | 75 | 3.0 | 5.0 | 0.00 | 0.01 | 0.01 | 76 | 1025.2 |
| 20260903043045 | 54 | 32 | 2.0 | 5.0 | 0.00 | 0.01 | 0.01 | 76 | 1025.2 |
| 20260903041537 | 54 | 55 | 2.0 | 6.0 | 0.00 | 0.01 | 0.01 | 73 | 1025.3 |
| 20260903040035 | 55 | 76 | 3.0 | 6.0 | 0.00 | 0.01 | 0.01 | 72 | 1025.1 |
| 20260903034534 | 57 | 116 | 1.0 | 4.0 | 0.00 | 0.01 | 0.01 | 69 | 1025.1 |
| 20260903033038 | 55 | 141 | 0.0 | 5.0 | 0.00 | 0.01 | 0.01 | 74 | 1025.0 |
| 20260903031544 | 56 | 106 | 1.0 | 4.0 | 0.00 | 0.01 | 0.01 | 75 | 1025.0 |
| 20260903030035 | 57 | 0 | 2.0 | 5.0 | 0.00 | 0.01 | 0.01 | 75 | 1024.8 |
| 20260903024533 | 57 | 135 | 0.0 | 3.0 | 0.00 | 0.01 | 0.01 | 76 | 1024.6 |
| 20260903023037 | 56 | 131 | 1.0 | 3.0 | 0.00 | 0.01 | 0.01 | 77 | 1024.4 |
| 20260903021534 | 55 | 47 | 2.0 | 4.0 | 0.00 | 0.01 | 0.01 | 77 | 1023.9 |
| 20260903020044 | 56 | 71 | 4.0 | 7.0 | 0.00 | 0.01 | 0.01 | 76 | 1023.6 |
| 20260903014535 | 57 | 64 | 2.0 | 4.0 | 0.00 | 0.01 | 0.01 | 74 | 1023.9 |
| 20260903013047 | 58 | 101 | 1.0 | 4.0 | 0.00 | 0.01 | 0.01 | 73 | 1024.2 |
| 20260903011537 | 59 | 100 | 2.0 | 7.0 | 0.00 | 0.01 | 0.01 | 71 | 1024.4 |
| 20260903010037 | 60 | 57 | 5.0 | 9.0 | 0.00 | 0.01 | 0.01 | 70 | 1024.5 |
| 20260903004536 | 60 | 117 | 7.0 | 10.0 | 0.00 | 0.01 | 0.01 | 69 | 1024.8 |
| 20260903003036 | 60 | 98 | 5.0 | 10.0 | 0.00 | 0.01 | 0.01 | 72 | 1024.9 |
| 20260903001535 | 0 | 2.0 | 0.0 | 0.00 | 0.01 | 0.01 | 1025.2 | ||
| 20260903000042 | 67 | 152 | 7.0 | 17.0 | 0.00 | 0.01 | 0.01 | 52 | 1025.2 |
| 20260902234536 | 70 | 267 | 6.0 | 11.0 | 0.00 | 0.01 | 0.01 | 47 | 1024.4 |
| 20260902233037 | 70 | 327 | 4.0 | 10.0 | 0.00 | 0.01 | 0.01 | 48 | 1024.3 |
| 20260902231539 | 69 | 283 | 7.0 | 13.0 | 0.00 | 0.01 | 0.01 | 49 | 1024.7 |
| 20260902230037 | 71 | 284 | 8.0 | 12.0 | 0.00 | 0.01 | 0.01 | 47 | 1024.7 |
| 20260902224538 | 70 | 265 | 6.0 | 10.0 | 0.00 | 0.01 | 0.01 | 46 | 1024.6 |
| 20260902223051 | 69 | 254 | 7.0 | 13.0 | 0.00 | 0.01 | 0.01 | 46 | 1025.0 |
| 20260902221540 | 71 | 196 | 2.0 | 9.0 | 0.00 | 0.01 | 0.01 | 43 | 1025.2 |
| 20260902220041 | 70 | 331 | 0.0 | 8.0 | 0.00 | 0.01 | 0.01 | 45 | 1025.3 |
| 20260902214536 | 67 | 59 | 2.0 | 6.0 | 0.01 | 0.01 | 0.01 | 53 | 1025.4 |
| 20260902213038 | 65 | 336 | 3.0 | 10.0 | 0.01 | 0.01 | 0.01 | 56 | 1025.7 |
| 20260902211538 | 63 | 11 | 3.0 | 9.0 | 0.01 | 0.01 | 0.01 | 71 | 1025.9 |
| 20260902210037 | 58 | 336 | 7.0 | 15.0 | 0.01 | 0.01 | 0.01 | 81 | 1026.1 |
| 20260902204549 | 58 | 277 | 10.0 | 19.0 | 0.00 | 0.00 | 0.00 | 72 | 1027.0 |
| 20260902203035 | 63 | 277 | 16.0 | 27.0 | 0.00 | 0.00 | 0.00 | 55 | 1026.5 |
| 20260902201537 | 74 | 255 | 16.0 | 26.0 | 0.00 | 0.00 | 0.00 | 43 | 1026.0 |
| 20260902200036 | 77 | 198 | 14.0 | 24.0 | 0.00 | 0.00 | 0.00 | 36 | 1024.7 |
| 20260902194537 | 77 | 192 | 13.0 | 24.0 | 0.00 | 0.01 | 0.00 | 36 | 1025.0 |
| 20260902193035 | 75 | 203 | 14.0 | 21.0 | 0.00 | 0.01 | 0.00 | 39 | 1025.1 |
| 20260902191540 | 74 | 196 | 8.0 | 19.0 | 0.00 | 0.01 | 0.00 | 43 | 1025.4 |
| 20260902190039 | 74 | 136 | 8.0 | 11.0 | 0.00 | 0.01 | 0.00 | 41 | 1025.7 |
| 20260902184538 | 73 | 144 | 8.0 | 15.0 | 0.00 | 0.01 | 0.00 | 42 | 1026.1 |
| 20260902183051 | 73 | 231 | 7.0 | 10.0 | 0.00 | 0.01 | 0.00 | 44 | 1026.2 |
| 20260902181539 | 69 | 159 | 8.0 | 19.0 | 0.00 | 0.01 | 0.00 | 49 | 1026.9 |
| 20260902180043 | 0 | 0.0 | 0.0 | 0.00 | 0.01 | 0.00 | 1027.1 | ||
| 20260902174537 | 0 | 0.0 | 0.0 | 0.00 | 0.01 | 0.00 | 1027.2 | ||
| 20260902173053 | 0 | 0.0 | 0.0 | 0.00 | 0.01 | 0.00 | 1027.2 | ||
| 20260902171534 | 0 | 0.0 | 0.0 | 0.00 | 0.01 | 0.00 | 1027.4 | ||
| 20260902170038 | 0 | 0.0 | 0.0 | 0.00 | 0.01 | 0.00 | 1027.4 | ||
| 20260902164542 | 0 | 0.0 | 0.0 | 0.00 | 0.01 | 0.00 | 1027.4 | ||
| 20260902163041 | 0 | 0.0 | 0.0 | 0.00 | 0.01 | 0.00 | 1027.5 | ||
| 20260902161536 | 0 | 0.0 | 0.0 | 0.00 | 0.01 | 0.00 | 1027.5 | ||
| 20260902160036 | 0 | 0.0 | 0.0 | 0.00 | 0.01 | 0.00 | 1027.5 | ||
| 20260902154539 | 0 | 0.0 | 0.0 | 0.00 | 0.01 | 0.00 | 1027.7 | ||
| 20260902153034 | 0 | 0.0 | 0.0 | 0.00 | 0.01 | 0.00 | 1027.6 | ||
| 20260902151537 | 0 | 0.0 | 0.0 | 0.00 | 0.01 | 0.00 | 1027.7 | ||
| 20260902150035 | 0 | 0.0 | 0.0 | 0.00 | 0.01 | 0.00 | 1027.7 | ||
| 20260902144534 | 61 | 0 | 0.0 | 2.0 | 0.00 | 0.01 | 0.00 | 59 | 1027.9 |
| 20260902143034 | 60 | 52 | 2.0 | 4.0 | 0.00 | 0.01 | 0.00 | 58 | 1027.7 |
| 20260902141536 | 57 | 0 | 0.0 | 1.0 | 0.00 | 0.01 | 0.00 | 63 | 1027.7 |
| 20260902140038 | 56 | 0 | 0.0 | 0.0 | 0.00 | 0.01 | 0.00 | 66 | 1027.8 |
| 20260902134537 | 52 | 0 | 0.0 | 2.0 | 0.00 | 0.01 | 0.00 | 75 | 1027.7 |
| 20260902133035 | 48 | 0 | 0.0 | 1.0 | 0.00 | 0.01 | 0.00 | 80 | 1027.7 |
| 20260902131539 | 47 | 0 | 0.0 | 0.0 | 0.00 | 0.01 | 0.00 | 79 | 1027.7 |
| 20260902130035 | 47 | 0 | 0.0 | 3.0 | 0.00 | 0.01 | 0.00 | 77 | 1027.4 |
| 20260902124537 | 48 | 0 | 0.0 | 0.0 | 0.00 | 0.01 | 0.00 | 76 | 1027.5 |
| 20260902123036 | 48 | 0 | 0.0 | 0.0 | 0.00 | 0.01 | 0.00 | 76 | 1027.5 |
| 20260902121536 | 49 | 0 | 0.0 | 0.0 | 0.00 | 0.01 | 0.00 | 76 | 1027.3 |